Regional Weather Roundup
Issued by NWS Little Rock, AR

Home | Current Version | Previous Version | Graphics & Text | Print | Product List | Glossary On
Versions: 1 2 3 4 5 6 7 8 9 10 11 12 13 14 15 16 17 18 19 20 21 22 23 24 25 26 27 28 29 30 31 32 33 34 35 36 37 38 39 40 41 42 43 44 45 46 47 48 49
000
ASUS44 KLZK 211805
RWRLZK

WEATHER ROUNDUP FOR ARKANSAS
NATIONAL WEATHER SERVICE LITTLE ROCK AR
100 PM CDT SUN SEP 21 2014

NOTE: "FAIR" INDICATES FEW OR NO CLOUDS BELOW 12,000 FEET WITH NO
SIGNIFICANT WEATHER AND/OR OBSTRUCTIONS TO VISIBILITY.

ARZ001-003-010-029-211900-
NORTHWEST ARKANSAS

CITY           SKY/WX    TMP DP  RH WIND       PRES   REMARKS
FAYETTEVILLE   PTSUNNY   76  68  76 N7        30.14S
6HR MIN TEMP:  66; 6HR MAX TEMP:  77; 6HR PCP:  0.03;

FORT SMITH     LGT RAIN  75  71  87 W8        30.10R
6HR MIN TEMP:  69; 6HR MAX TEMP:  81; 6HR PCP:  0.02;

HARRISON       MOSUNNY   81  65  58 N7        30.12F
6HR MIN TEMP:  71; 6HR MAX TEMP:  81; 6HR PCP:  0.01;

BENTONVILLE    SUNNY     77  54  44 N13       30.17R
6HR MIN TEMP:  70; 6HR MAX TEMP:  77; 6HR PCP:  0.12;

ROGERS         SUNNY     77  50  38 NE9       30.16S
6HR MIN TEMP:  69; 6HR MAX TEMP:  77; 6HR PCP:  0.08;

SILOAM SPGS    SUNNY     79  54  41 NE12      30.16S
6HR MIN TEMP:  68; 6HR MAX TEMP:  79; 6HR PCP:  0.04;

HIGHFILL       SUNNY     78  54  43 N13       30.15S
6HR MIN TEMP:  69; 6HR MAX TEMP:  78; 6HR PCP:  0.18;

SPRINGDALE     MOSUNNY   77  63  61 NE13      30.16F
$$

ARZ004-005-016-211900-
NORTH CENTRAL ARKANSAS

CITY           SKY/WX    TMP DP  RH WIND       PRES   REMARKS
BATESVILLE     PTSUNNY   84  70  61 W6        30.04F HX  88
6HR MIN TEMP:  68; 6HR MAX TEMP:  84;

FLIPPIN        MOSUNNY   81  61  50 NW13      30.10F
6HR MIN TEMP:  66; 6HR MAX TEMP:  81;

MTN HOME       MOSUNNY   80  61  52 VRB6      30.09F
6HR MIN TEMP:  68; 6HR MAX TEMP:  80; 6HR PCP:  0.04;

$$

ARZ040-041-211900-
WEST CENTRAL ARKANSAS

CITY           SKY/WX    TMP DP  RH WIND       PRES   REMARKS
MENA           PTSUNNY   86  70  58 CALM      30.11F HX  90
MOUNT IDA      MOSUNNY   87  67  51 NW8G16    30.07F HX  90
6HR MIN TEMP:  64; 6HR MAX TEMP:  88;

$$

ARZ009-017-025-026-028-211900-
NORTHEAST ARKANSAS

CITY           SKY/WX    TMP DP  RH WIND       PRES   REMARKS
CORNING          N/A     82  68  61 N9        30.03S HX  85
JONESBORO      PTSUNNY   83  70  64 NW5       30.02F HX  87
6HR MIN TEMP:  69; 6HR MAX TEMP:  83;

NEWPORT        PTSUNNY   87  69  54 N7        30.03F HX  91
6HR MIN TEMP:  67; 6HR MAX TEMP:  87;

WALNUT RIDGE   MOSUNNY   84  64  51 N9G16     30.02F HX  86
6HR MIN TEMP:  66; 6HR MAX TEMP:  84;

BLYTHEVILLE    MOSUNNY   88  72  58 NW9       30.01F HX  94
6HR MIN TEMP:  69; 6HR MAX TEMP:  89;

$$

ARZ022-023-033-042-044-211900-
CENTRAL ARKANSAS

CITY           SKY/WX    TMP DP  RH WIND       PRES   REMARKS
LITTLE ROCK    PTSUNNY   87  67  51 NW14      30.05F HX  90
6HR MIN TEMP:  69; 6HR MAX TEMP:  90;

N LITTLE ROCK  PTSUNNY   86  71  61 NW10      30.05F HX  92
6HR MIN TEMP:  72; 6HR MAX TEMP:  86;

JACKSONVILLE   MOSUNNY   87  71  57 W8        30.05F HX  92
6HR MIN TEMP:  66; 6HR MAX TEMP:  88;

SEARCY         MOSUNNY   87  69  54 VRB6      30.04F HX  91
6HR MIN TEMP:  64; 6HR MAX TEMP:  89;

HOT SPRINGS    MOSUNNY   87  68  52 NW9       30.07F HX  90
6HR MIN TEMP:  68; 6HR MAX TEMP:  88;

RUSSELLVILLE   CLOUDY    83  71  67 N7        30.07F HX  87
6HR MIN TEMP:  67; 6HR MAX TEMP:  84;

CLINTON        FAIR      81  72  74 NW8       30.08S
$$

ARZ036-211900-
EAST ARKANSAS

CITY           SKY/WX    TMP DP  RH WIND       PRES   REMARKS
WEST MEMPHIS   CLOUDY    86  71  60 NW8       30.00F HX  91
6HR MIN TEMP:  65; 6HR MAX TEMP:  89;

$$

ARZ050-053-066-070-073-211900-
SOUTHWEST ARKANSAS

CITY           SKY/WX    TMP DP  RH WIND       PRES   REMARKS
ARKADELPHIA    FAIR      90  71  53 NW8       30.05F HX  96
6HR MIN TEMP:  66; 6HR MAX TEMP:  91; 6HR PCP: TRACE;

CAMDEN         MOSUNNY   93  66  40 N9        30.05F HX  96
TEXARKANA      SUNNY     90  70  51 NW9       30.07F HX  95
6HR MIN TEMP:  67; 6HR MAX TEMP:  90;

EL DORADO      MOSUNNY   90  68  48 N5        30.06F HX  94
6HR MIN TEMP:  65; 6HR MAX TEMP:  90;

DE QUEEN       MOSUNNY   88  69  53 NW9       30.05F HX  92
6HR MIN TEMP:  65; 6HR MAX TEMP:  89;

$$

ARZ056-057-069-211900-
SOUTHEAST ARKANSAS

CITY           SKY/WX    TMP DP  RH WIND       PRES   REMARKS
PINE BLUFF     SUNNY     90  65  43 NW12G18   30.04F HX  92
6HR MIN TEMP:  67; 6HR MAX TEMP:  90; 6HR PCP: TRACE;

STUTTGART      MOSUNNY   90  70  51 W15       30.04F HX  95
6HR MIN TEMP:  66; 6HR MAX TEMP:  91;

MONTICELLO     SUNNY     90  66  45 N8G17     30.04F HX  92
6HR MIN TEMP:  67; 6HR MAX TEMP:  90;


$$





USA.gov is the U.S. government's official web portal to all federal, state and local government web resources and services.